TimeCDT,TemperatureF,Dew PointF,Humidity,Sea Level PressureIn,VisibilityMPH,Wind Direction,Wind SpeedMPH,Gust SpeedMPH,PrecipitationIn,Events,Conditions,WindDirDegrees,DateUTC
12:15 AM,42.8,39.7,89,29.93,10.0,West,9.2,-,N/A,,Scattered Clouds,260,2012-10-10 05:15:00
12:35 AM,42.8,39.7,89,29.93,10.0,West,8.1,-,N/A,,Clear,260,2012-10-10 05:35:00
12:55 AM,42.3,39.4,90,29.93,10.0,WSW,9.2,-,N/A,,Clear,250,2012-10-10 05:55:00
1:15 AM,41.9,39.2,90,29.93,10.0,West,9.2,-,N/A,,Clear,260,2012-10-10 06:15:00
1:35 AM,41.4,38.7,90,29.94,10.0,West,10.4,-,N/A,,Clear,270,2012-10-10 06:35:00
2:15 AM,41.0,37.9,89,29.95,10.0,West,10.4,-,N/A,,Clear,270,2012-10-10 07:15:00
2:35 AM,40.1,37.2,89,29.95,10.0,West,10.4,-,N/A,,Clear,280,2012-10-10 07:35:00
2:55 AM,39.4,36.3,89,29.95,10.0,West,10.4,17.3,N/A,,Clear,280,2012-10-10 07:55:00
3:15 AM,39.0,35.6,88,29.95,10.0,West,10.4,-,N/A,,Clear,280,2012-10-10 08:15:00
3:35 AM,38.3,34.7,87,29.96,10.0,West,10.4,-,N/A,,Clear,280,2012-10-10 08:35:00
3:55 AM,37.9,34.3,87,29.97,10.0,West,10.4,-,N/A,,Clear,280,2012-10-10 08:55:00
4:15 AM,37.6,33.8,86,29.97,10.0,West,11.5,16.1,N/A,,Clear,270,2012-10-10 09:15:00
4:35 AM,37.6,33.8,86,29.97,10.0,West,11.5,-,N/A,,Clear,270,2012-10-10 09:35:00
4:55 AM,37.6,33.6,86,29.98,10.0,West,11.5,-,N/A,,Clear,280,2012-10-10 09:55:00
5:15 AM,36.9,32.9,86,29.98,10.0,West,12.7,-,N/A,,Clear,280,2012-10-10 10:15:00
5:35 AM,36.5,32.4,85,29.99,10.0,West,12.7,18.4,N/A,,Clear,280,2012-10-10 10:35:00
5:55 AM,36.1,32.4,86,30.00,10.0,West,12.7,17.3,N/A,,Clear,270,2012-10-10 10:55:00
6:15 AM,35.6,32.0,87,30.01,10.0,West,12.7,18.4,N/A,,Clear,270,2012-10-10 11:15:00
6:35 AM,35.6,32.0,87,30.02,10.0,West,11.5,19.6,N/A,,Clear,280,2012-10-10 11:35:00
6:55 AM,35.1,31.8,88,30.03,10.0,West,13.8,-,N/A,,Clear,270,2012-10-10 11:55:00
7:15 AM,35.1,31.8,88,30.03,10.0,West,11.5,18.4,N/A,,Clear,280,2012-10-10 12:15:00
7:55 AM,35.6,32.0,87,30.06,10.0,West,11.5,-,N/A,,Clear,280,2012-10-10 12:55:00
8:15 AM,37.4,32.0,81,30.07,10.0,West,13.8,-,N/A,,Clear,270,2012-10-10 13:15:00
8:35 AM,37.6,32.5,82,30.08,10.0,West,12.7,18.4,N/A,,Clear,280,2012-10-10 13:35:00
8:55 AM,38.5,33.1,81,30.09,10.0,WNW,12.7,20.7,N/A,,Clear,290,2012-10-10 13:55:00
9:15 AM,39.9,33.8,79,30.09,10.0,West,17.3,21.9,N/A,,Clear,280,2012-10-10 14:15:00
9:35 AM,40.3,33.3,76,30.11,10.0,West,19.6,24.2,N/A,,Clear,280,2012-10-10 14:35:00
9:55 AM,41.4,33.4,73,30.11,10.0,West,17.3,26.5,N/A,,Clear,280,2012-10-10 14:55:00
10:15 AM,42.8,33.4,70,30.11,10.0,West,17.3,21.9,N/A,,Clear,280,2012-10-10 15:15:00
10:35 AM,43.9,32.0,63,30.11,10.0,WNW,15.0,24.2,N/A,,Clear,290,2012-10-10 15:35:00
10:55 AM,45.5,32.0,59,30.12,10.0,West,15.0,19.6,N/A,,Clear,280,2012-10-10 15:55:00
11:15 AM,45.7,30.9,56,30.13,10.0,WNW,19.6,-,N/A,,Clear,290,2012-10-10 16:15:00
11:55 AM,47.5,30.0,51,30.13,10.0,West,17.3,26.5,N/A,,Scattered Clouds,280,2012-10-10 16:55:00
12:15 PM,46.6,27.0,46,30.13,10.0,West,19.6,31.1,N/A,,Scattered Clouds,280,2012-10-10 17:15:00
12:35 PM,47.3,28.2,48,30.12,10.0,WNW,18.4,28.8,N/A,,Scattered Clouds,300,2012-10-10 17:35:00
12:55 PM,48.0,28.6,47,30.12,10.0,WNW,16.1,21.9,N/A,,Mostly Cloudy,290,2012-10-10 17:55:00
1:15 PM,49.8,27.9,43,30.12,10.0,West,25.3,31.1,N/A,,Mostly Cloudy,280,2012-10-10 18:15:00
1:35 PM,48.2,27.0,44,30.12,10.0,WNW,20.7,32.2,N/A,,Scattered Clouds,290,2012-10-10 18:35:00
1:55 PM,50.5,28.2,42,30.13,10.0,West,18.4,29.9,N/A,,Scattered Clouds,280,2012-10-10 18:55:00
2:15 PM,48.0,28.0,46,30.12,10.0,WNW,15.0,23.0,N/A,,Mostly Cloudy,290,2012-10-10 19:15:00
2:35 PM,50.0,27.0,41,30.13,10.0,West,20.7,25.3,N/A,,Mostly Cloudy,270,2012-10-10 19:35:00
2:55 PM,51.3,27.7,40,30.13,10.0,West,16.1,21.9,N/A,,Mostly Cloudy,280,2012-10-10 19:55:00
3:15 PM,49.6,26.1,40,30.12,10.0,West,16.1,-,N/A,,Scattered Clouds,280,2012-10-10 20:15:00
3:35 PM,50.7,27.7,41,30.12,10.0,WNW,13.8,-,N/A,,Scattered Clouds,300,2012-10-10 20:35:00
3:55 PM,51.8,27.5,39,30.11,10.0,WSW,19.6,25.3,N/A,,Scattered Clouds,250,2012-10-10 20:55:00
4:15 PM,51.4,27.0,39,30.11,10.0,West,13.8,20.7,N/A,,Clear,270,2012-10-10 21:15:00
4:35 PM,51.3,26.8,39,30.12,10.0,West,19.6,24.2,N/A,,Scattered Clouds,270,2012-10-10 21:35:00
4:55 PM,50.9,26.2,38,30.12,10.0,West,11.5,-,N/A,,Scattered Clouds,270,2012-10-10 21:55:00
5:15 PM,50.4,26.2,39,30.12,10.0,West,11.5,18.4,N/A,,Clear,280,2012-10-10 22:15:00
5:35 PM,50.2,26.2,39,30.12,10.0,West,10.4,-,N/A,,Clear,280,2012-10-10 22:35:00
5:55 PM,49.1,26.1,41,30.13,10.0,West,10.4,-,N/A,,Clear,270,2012-10-10 22:55:00
6:15 PM,48.2,26.6,43,30.13,10.0,West,8.1,-,N/A,,Clear,270,2012-10-10 23:15:00
6:35 PM,46.0,27.5,48,30.14,10.0,West,8.1,-,N/A,,Clear,270,2012-10-10 23:35:00
6:55 PM,44.8,28.0,52,30.14,10.0,West,6.9,-,N/A,,Clear,270,2012-10-10 23:55:00
7:15 PM,43.7,28.6,55,30.16,10.0,West,6.9,-,N/A,,Clear,270,2012-10-11 00:15:00
7:55 PM,43.2,28.6,56,30.16,10.0,WSW,5.8,-,N/A,,Clear,250,2012-10-11 00:55:00
8:15 PM,39.7,29.3,66,30.16,10.0,SW,4.6,-,N/A,,Clear,230,2012-10-11 01:15:00
8:35 PM,40.1,28.9,64,30.16,10.0,SW,4.6,-,N/A,,Clear,220,2012-10-11 01:35:00
8:55 PM,35.4,28.9,77,30.17,10.0,SSW,3.5,-,N/A,,Clear,210,2012-10-11 01:55:00
9:15 PM,34.9,29.1,79,30.17,10.0,SSW,5.8,-,N/A,,Clear,210,2012-10-11 02:15:00
9:35 PM,35.6,29.7,79,30.17,10.0,SW,4.6,-,N/A,,Clear,220,2012-10-11 02:35:00
9:55 PM,34.3,28.9,81,30.16,10.0,SSW,5.8,-,N/A,,Clear,210,2012-10-11 02:55:00
10:15 PM,35.6,29.1,77,30.16,10.0,SSW,5.8,-,N/A,,Clear,210,2012-10-11 03:15:00
10:35 PM,36.3,29.3,76,30.16,10.0,SW,5.8,-,N/A,,Clear,220,2012-10-11 03:35:00
10:55 PM,38.5,29.1,69,30.16,10.0,SSW,4.6,-,N/A,,Clear,210,2012-10-11 03:55:00
11:15 PM,36.1,28.2,73,30.16,10.0,SSW,5.8,-,N/A,,Clear,200,2012-10-11 04:15:00
11:35 PM,34.3,28.0,78,30.16,10.0,South,4.6,-,N/A,,Clear,190,2012-10-11 04:35:00
11:55 PM,34.9,27.9,76,30.15,10.0,South,6.9,-,N/A,,Clear,170,2012-10-11 04:55:00